Weather History for Ruidoso, NM

Change the Weather History Date:

Thursday, April 25, 2013

  Actual Average Record
Temperature  
Mean Temperature 52 °F -  
Max Temperature 68 °F 64 °F 80 °F (2012)
Min Temperature 35 °F 41 °F 28 °F (1997)
Degree Days  
Heating Degree Days 14    
Growing Degree Days 2 (Base 50)    
Moisture  
Dew Point 23 °F    
Average Humidity 37    
Maximum Humidity 56    
Minimum Humidity 13    
Precipitation  
Precipitation 0.00 in - - ()
Sea Level Pressure  
Sea Level Pressure 30.18 in    
Wind  
Wind Speed 7 mph (SSE)    
Max Wind Speed 30 mph    
Max Gust Speed 39 mph    
Visibility 10 miles    
Events      
Averages and records for this station are not official NWS values.
T = Trace of Precipitation, MM = Missing Value Source: NWS Daily Summary

Daily Weather History Graph

Daily Weather History Graph

Search for Another Location

Airport:

Trip Planner

Search our weather history database for the weather conditions in past years. The results will help you decide how hot, cold, wet, or windy it might be!

Date:

Astronomy

Apr. 25, 2013 Rise Set
Actual Time 6:19 AM MDT 7:40 PM MDT
Civil Twilight 5:53 AM MDT 8:06 PM MDT
Nautical Twilight 5:22 AM MDT 8:38 PM MDT
Astronomical Twilight 4:50 AM MDT 9:10 PM MDT
Moon 7:55 PM MDT (4/25) 6:04 AM MDT (4/25)
Length of Visible Light 14h 13m
Length of Day
13h 20m
Full, 100% of the Moon is Illuminated
Apr 25
Full
Apr 25
Full
May 2
Last Quarter
May 9
New
May 17
First Quarter

Hourly Weather History & Observations

Time (MDT) Temp. Windchill Dew Point Humidity Pressure Visibility Wind Dir Wind Speed Gust Speed Precip Events Conditions
12:15 AM 39.2 °F 35.9 °F 21.2 °F 49% 30.26 in 10.0 mi SE 4.6 mph - N/A   Clear
12:35 AM 39.2 °F - 21.2 °F 49% 30.26 in 10.0 mi Calm Calm - N/A   Clear
12:55 AM 37.4 °F 34.9 °F 19.4 °F 48% 30.27 in 10.0 mi SW 3.5 mph - N/A   Clear
1:15 AM 37.4 °F 33.8 °F 19.4 °F 48% 30.26 in 10.0 mi South 4.6 mph - N/A   Clear
1:35 AM 39.2 °F 37.0 °F 21.2 °F 49% 30.26 in 10.0 mi SE 3.5 mph - N/A   Clear
1:55 AM 39.2 °F - 21.2 °F 49% 30.26 in 10.0 mi Calm Calm - N/A   Clear
2:15 AM 39.2 °F - 21.2 °F 49% 30.25 in 10.0 mi Calm Calm - N/A   Clear
2:35 AM 39.2 °F - 21.2 °F 49% 30.25 in 10.0 mi Calm Calm - N/A   Scattered Clouds
2:55 AM 37.4 °F 33.8 °F 21.2 °F 52% 30.24 in 10.0 mi South 4.6 mph - N/A   Partly Cloudy
3:15 AM 37.4 °F 33.8 °F 19.4 °F 48% 30.23 in 10.0 mi South 4.6 mph - N/A   Clear
3:35 AM 37.4 °F 32.8 °F 19.4 °F 48% 30.22 in 10.0 mi South 5.8 mph - N/A   Clear
3:55 AM 37.4 °F 32.1 °F 19.4 °F 48% 30.22 in 10.0 mi South 6.9 mph - N/A   Scattered Clouds
4:15 AM 35.6 °F 29.9 °F 19.4 °F 52% 30.22 in 10.0 mi South 6.9 mph - N/A   Partly Cloudy
4:35 AM 37.4 °F 32.8 °F 21.2 °F 52% 30.23 in 10.0 mi SSW 5.8 mph - N/A   Clear
4:55 AM 35.6 °F - 21.2 °F 56% 30.23 in 10.0 mi North - - N/A   Clear
5:15 AM 37.4 °F - 21.2 °F 52% 30.23 in 10.0 mi Calm Calm - N/A   Clear
5:35 AM 37.4 °F 34.9 °F 21.2 °F 52% 30.23 in 10.0 mi SSE 3.5 mph - N/A   Clear
5:55 AM 35.6 °F 29.9 °F 19.4 °F 52% 30.25 in 10.0 mi SSW 6.9 mph - N/A   Clear
6:15 AM 35.6 °F 30.7 °F 19.4 °F 52% 30.25 in 10.0 mi SE 5.8 mph - N/A   Scattered Clouds
6:35 AM 35.6 °F - 19.4 °F 52% 30.26 in 10.0 mi Calm Calm - N/A   Scattered Clouds
6:55 AM 35.6 °F 32.8 °F 21.2 °F 56% 30.24 in 10.0 mi ESE 3.5 mph - N/A   Clear
7:15 AM 37.4 °F - 21.2 °F 52% 30.25 in 10.0 mi Calm Calm - N/A   Partly Cloudy
7:35 AM 37.4 °F 33.8 °F 21.2 °F 52% 30.25 in 10.0 mi SSE 4.6 mph - N/A   Clear
7:55 AM 37.4 °F 32.1 °F 23.0 °F 56% 30.26 in 10.0 mi South 6.9 mph - N/A   Partly Cloudy
8:15 AM 39.2 °F 33.0 °F 23.0 °F 52% 30.27 in 10.0 mi ESE 9.2 mph - N/A   Mostly Cloudy
8:35 AM 39.2 °F 35.0 °F 23.0 °F 52% 30.27 in 10.0 mi ESE 5.8 mph - N/A   Overcast
8:55 AM 39.2 °F 32.0 °F 23.0 °F 52% 30.28 in 10.0 mi SE 11.5 mph - N/A   Mostly Cloudy
9:15 AM 39.2 °F 32.5 °F 23.0 °F 52% 30.28 in 10.0 mi SE 10.4 mph - N/A   Mostly Cloudy
9:35 AM 42.8 °F 37.0 °F 23.0 °F 46% 30.27 in 10.0 mi SE 10.4 mph - N/A   Scattered Clouds
9:55 AM 44.6 °F 38.4 °F 23.0 °F 43% 30.26 in 10.0 mi SSE 12.7 mph - N/A   Clear
10:15 AM 48.2 °F - 23.0 °F 37% 30.26 in 10.0 mi SE 9.2 mph - N/A   Clear
10:35 AM 51.8 °F - 24.8 °F 35% 30.25 in 10.0 mi SSE 15.0 mph - N/A   Clear
10:55 AM 53.6 °F - 24.8 °F 33% 30.25 in 10.0 mi SSE 11.5 mph - N/A   Clear
11:15 AM 53.6 °F - 24.8 °F 33% 30.24 in 10.0 mi SE 12.7 mph 19.6 mph N/A   Partly Cloudy
11:35 AM 57.2 °F - 24.8 °F 29% 30.23 in 10.0 mi East 12.7 mph 19.6 mph N/A   Partly Cloudy
11:55 AM 57.2 °F - 24.8 °F 29% 30.21 in 10.0 mi East 15.0 mph 18.4 mph N/A   Partly Cloudy
12:15 PM 59.0 °F - 24.8 °F 27% 30.20 in 10.0 mi East 9.2 mph 20.7 mph N/A   Partly Cloudy
12:35 PM 57.2 °F - 24.8 °F 29% 30.21 in 10.0 mi SE 5.8 mph 16.1 mph N/A   Clear
12:55 PM 59.0 °F - 24.8 °F 27% 30.20 in 10.0 mi East 10.4 mph 17.3 mph N/A   Clear
1:15 PM 59.0 °F - 24.8 °F 27% 30.20 in 10.0 mi ESE 5.8 mph - N/A   Partly Cloudy
1:35 PM 59.0 °F - 24.8 °F 27% 30.20 in 10.0 mi ESE 9.2 mph - N/A   Clear
1:55 PM 59.0 °F - 26.6 °F 29% 30.19 in 10.0 mi SSE 4.6 mph - N/A   Partly Cloudy
2:15 PM 62.6 °F - 26.6 °F 26% 30.18 in 10.0 mi East 12.7 mph - N/A   Partly Cloudy
2:35 PM 62.6 °F - 28.4 °F 27% 30.16 in 10.0 mi ESE 15.0 mph - N/A   Partly Cloudy
2:55 PM 62.6 °F - 28.4 °F 27% 30.15 in 10.0 mi ESE 13.8 mph 17.3 mph N/A   Partly Cloudy
3:15 PM 62.6 °F - 28.4 °F 27% 30.14 in 10.0 mi SE 13.8 mph 19.6 mph N/A   Scattered Clouds
3:35 PM 62.6 °F - 30.2 °F 30% 30.12 in 10.0 mi SE 18.4 mph 25.3 mph N/A   Scattered Clouds
3:55 PM 64.4 °F - 30.2 °F 28% 30.11 in 10.0 mi ESE 20.7 mph 29.9 mph N/A   Clear
4:15 PM 64.4 °F - 32.0 °F 30% 30.10 in 10.0 mi SSE 12.7 mph 28.8 mph N/A   Clear
4:35 PM 64.4 °F - 32.0 °F 30% 30.10 in 10.0 mi SSE 9.2 mph - N/A   Clear
4:55 PM 68.0 °F - 15.8 °F 13% 30.08 in 10.0 mi SW 23.0 mph 35.7 mph N/A   Clear
5:15 PM 68.0 °F - 15.8 °F 13% 30.08 in 10.0 mi SW 25.3 mph 34.5 mph N/A   Clear
5:35 PM 68.0 °F - 17.6 °F 15% 30.08 in 10.0 mi SSW 24.2 mph 34.5 mph N/A   Clear
5:55 PM 68.0 °F - 19.4 °F 16% 30.08 in 10.0 mi SW 17.3 mph 33.4 mph N/A   Clear
6:15 PM 66.2 °F - 23.0 °F 19% 30.07 in 10.0 mi SW 27.6 mph 39.1 mph N/A   Clear
6:35 PM 66.2 °F - 24.8 °F 21% 30.07 in 10.0 mi SSW 17.3 mph 32.2 mph N/A   Clear
6:55 PM 66.2 °F - 23.0 °F 19% 30.06 in 10.0 mi SW 29.9 mph 34.5 mph N/A   Clear
7:15 PM 64.4 °F - 23.0 °F 21% 30.06 in 10.0 mi SSW 17.3 mph 24.2 mph N/A   Clear
7:35 PM 64.4 °F - 23.0 °F 21% 30.07 in 10.0 mi SSW 12.7 mph 17.3 mph N/A   Clear
7:55 PM 64.4 °F - 23.0 °F 21% 30.07 in 10.0 mi SSW 18.4 mph 27.6 mph N/A   Clear
8:15 PM 64.4 °F - 21.2 °F 19% 30.08 in 10.0 mi SSW 15.0 mph - N/A   Clear
8:35 PM 62.6 °F - 23.0 °F 22% 30.08 in 10.0 mi South 11.5 mph - N/A   Clear
8:55 PM 62.6 °F - 23.0 °F 22% 30.09 in 10.0 mi SSW 9.2 mph - N/A   Clear
9:15 PM 57.2 °F - 30.2 °F 36% 30.10 in 10.0 mi SSE 6.9 mph - N/A   Clear
9:35 PM 55.4 °F - 32.0 °F 41% 30.11 in 10.0 mi SSE 11.5 mph - N/A   Clear
9:55 PM 53.6 °F - 32.0 °F 44% 30.11 in 10.0 mi South 6.9 mph - N/A   Clear
10:15 PM 55.4 °F - 21.2 °F 26% 30.12 in 10.0 mi SW 9.2 mph - N/A   Clear
10:35 PM 59.0 °F - 15.8 °F 19% 30.12 in 10.0 mi SW 10.4 mph - N/A   Clear
10:55 PM 53.6 °F - 30.2 °F 41% 30.12 in 10.0 mi North 3.5 mph - N/A   Clear
11:15 PM 51.8 °F - 32.0 °F 47% 30.12 in 10.0 mi North 4.6 mph - N/A   Clear
11:35 PM 53.6 °F - 28.4 °F 38% 30.13 in 10.0 mi WNW 3.5 mph - N/A   Clear
11:55 PM 55.4 °F - 15.8 °F 21% 30.12 in 10.0 mi WNW 6.9 mph - N/A   Clear